TVS103A LHBP-EDNY

Flight info

Callsign TVS103A
Flight time 1h 8m
Altitude 38000
Route GILEP DCT ARSIN DCT VATET DCT ERKIR L608 KPT KPT1F
Aircraft B737/M-SDE2E3FGHIRWXY/LB1

Departure

Time 2026-05-04 15:01
Airport Budapest Liszt Ferenc International Airport (LHBP)

Arrival

Time 2026-05-04 16:10
Airport Bodensee Airport Friedrichshafen (EDNY)
Time Latitude Longitude Altitude Speed Heading
2026-05-04 14:39 47.43545 19.26014 483 ft 0 kts 312°
2026-05-04 14:57 47.43546 19.26013 456 ft 0 kts 312°
2026-05-04 14:57 47.43553 19.26002 456 ft 2 kts 312°
2026-05-04 14:58 47.43570 19.25976 455 ft 4 kts 318°
2026-05-04 14:58 47.43602 19.25980 456 ft 6 kts 33°
2026-05-04 14:58 47.43637 19.26026 456 ft 8 kts 41°
2026-05-04 14:58 47.43694 19.26031 455 ft 10 kts 328°
2026-05-04 14:59 47.43744 19.25948 456 ft 11 kts 340°
2026-05-04 14:59 47.43809 19.26012 456 ft 11 kts 43°
2026-05-04 14:59 47.43923 19.26166 456 ft 11 kts 42°
2026-05-04 15:00 47.43983 19.26245 456 ft 11 kts 42°
2026-05-04 15:00 47.44039 19.26325 462 ft 11 kts 51°
2026-05-04 15:00 47.44069 19.26431 469 ft 11 kts 83°
2026-05-04 15:01 47.43905 19.26787 470 ft 64 kts 133°
2026-05-04 15:01 47.43443 19.27531 469 ft 129 kts 133°
2026-05-04 15:01 47.42761 19.28610 862 ft 144 kts 135°
2026-05-04 15:01 47.42087 19.29734 1397 ft 158 kts 134°
2026-05-04 15:02 47.41510 19.31124 1977 ft 169 kts 118°
2026-05-04 15:02 47.40924 19.32841 2322 ft 197 kts 121°
2026-05-04 15:02 47.40225 19.34731 2625 ft 224 kts 123°
2026-05-04 15:02 47.39432 19.36805 3090 ft 238 kts 123°
2026-05-04 15:03 47.38586 19.38969 3801 ft 249 kts 128°
2026-05-04 15:03 47.37252 19.40592 4438 ft 256 kts 161°
2026-05-04 15:03 47.35498 19.40867 5342 ft 258 kts 190°
2026-05-04 15:03 47.33868 19.39818 6285 ft 260 kts 219°
2026-05-04 15:04 47.32684 19.37779 7211 ft 263 kts 237°
2026-05-04 15:04 47.31773 19.35468 8223 ft 266 kts 240°
2026-05-04 15:04 47.30883 19.33026 9094 ft 276 kts 241°
2026-05-04 15:04 47.29969 19.30508 10103 ft 280 kts 239°
2026-05-04 15:05 47.29021 19.27928 10792 ft 296 kts 240°
2026-05-04 15:05 47.27980 19.25131 11027 ft 327 kts 239°
2026-05-04 15:05 47.26843 19.22107 11530 ft 343 kts 239°
2026-05-04 15:05 47.25676 19.19017 12459 ft 347 kts 239°
2026-05-04 15:06 47.24486 19.15881 13311 ft 355 kts 240°
2026-05-04 15:06 47.23268 19.12681 14145 ft 361 kts 240°
2026-05-04 15:06 47.22035 19.09450 15092 ft 363 kts 240°
2026-05-04 15:07 47.20443 19.02381 16812 ft 376 kts 272°
2026-05-04 15:07 47.20960 18.98617 17753 ft 379 kts 291°
2026-05-04 15:07 47.22269 18.95289 18582 ft 383 kts 307°
2026-05-04 15:07 47.23908 18.92184 19367 ft 387 kts 308°
2026-05-04 15:08 47.25632 18.89043 20141 ft 391 kts 308°
2026-05-04 15:08 47.27330 18.85954 20893 ft 395 kts 308°
2026-05-04 15:08 47.29058 18.82774 21662 ft 399 kts 308°
2026-05-04 15:08 47.30787 18.79557 22407 ft 402 kts 308°
2026-05-04 15:09 47.32523 18.76300 23137 ft 406 kts 307°
2026-05-04 15:09 47.34268 18.73007 23816 ft 410 kts 307°
2026-05-04 15:09 47.36030 18.69675 24425 ft 412 kts 307°
2026-05-04 15:10 47.39569 18.62974 25670 ft 416 kts 308°
2026-05-04 15:10 47.41301 18.59531 26206 ft 420 kts 301°
2026-05-04 15:10 47.43245 18.51421 27487 ft 421 kts 286°
2026-05-04 15:11 47.44046 18.47234 28019 ft 423 kts 287°
2026-05-04 15:11 47.44864 18.43026 28504 ft 427 kts 287°
2026-05-04 15:11 47.45695 18.38833 28834 ft 434 kts 287°
2026-05-04 15:11 47.46559 18.34546 29305 ft 437 kts 288°
2026-05-04 15:12 47.47433 18.30216 29694 ft 442 kts 288°
2026-05-04 15:12 47.48295 18.25839 30093 ft 446 kts 285°
2026-05-04 15:12 47.48809 18.21306 30528 ft 448 kts 278°
2026-05-04 15:12 47.49098 18.16709 31056 ft 446 kts 276°
2026-05-04 15:13 47.49319 18.12143 31556 ft 445 kts 275°
2026-05-04 15:13 47.49530 18.07573 32009 ft 445 kts 275°
2026-05-04 15:13 47.49755 18.03002 32426 ft 445 kts 276°
2026-05-04 15:13 47.49997 17.98454 32989 ft 442 kts 276°
2026-05-04 15:14 47.50250 17.93946 33544 ft 439 kts 276°
2026-05-04 15:14 47.50508 17.89500 33927 ft 439 kts 276°
2026-05-04 15:14 47.50773 17.85001 34221 ft 441 kts 276°
2026-05-04 15:14 47.51038 17.80492 34605 ft 439 kts 276°
2026-05-04 15:15 47.51301 17.76010 35133 ft 434 kts 276°
2026-05-04 15:15 47.51558 17.71579 35569 ft 431 kts 276°
2026-05-04 15:15 47.51814 17.67152 35818 ft 433 kts 276°
2026-05-04 15:16 47.52323 17.58235 36399 ft 434 kts 276°
2026-05-04 15:16 47.52572 17.53805 36861 ft 430 kts 276°
2026-05-04 15:16 47.53064 17.44969 37414 ft 432 kts 276°
2026-05-04 15:17 47.53305 17.40592 37711 ft 431 kts 276°
2026-05-04 15:17 47.53784 17.31802 37994 ft 424 kts 275°
2026-05-04 15:17 47.54018 17.27467 38016 ft 423 kts 275°
2026-05-04 15:18 47.54484 17.18741 38019 ft 429 kts 275°
2026-05-04 15:19 47.55184 17.05406 38000 ft 435 kts 275°
2026-05-04 15:19 47.55864 16.92133 37987 ft 426 kts 275°
2026-05-04 15:20 47.56300 16.83470 37984 ft 420 kts 275°
2026-05-04 15:20 47.56727 16.74846 37995 ft 421 kts 274°
2026-05-04 15:21 47.56991 16.66116 37992 ft 428 kts 272°
2026-05-04 15:22 47.57241 16.52960 37982 ft 426 kts 272°
2026-05-04 15:22 47.57508 16.39838 37985 ft 424 kts 272°
2026-05-04 15:23 47.57689 16.31100 37969 ft 424 kts 272°
2026-05-04 15:23 47.57865 16.22362 37992 ft 424 kts 272°
2026-05-04 15:24 47.58197 16.04929 37988 ft 424 kts 272°
2026-05-04 15:25 47.58352 15.96198 37986 ft 424 kts 272°
2026-05-04 15:26 47.58573 15.83095 37981 ft 424 kts 271°
2026-05-04 15:26 47.58779 15.70006 37987 ft 424 kts 271°
2026-05-04 15:27 47.58970 15.56915 37997 ft 424 kts 271°
2026-05-04 15:28 47.59145 15.43856 37991 ft 424 kts 271°
2026-05-04 15:29 47.59307 15.30727 37997 ft 425 kts 271°
2026-05-04 15:30 47.59628 15.00093 37971 ft 424 kts 270°
2026-05-04 15:31 47.59737 14.87047 37959 ft 424 kts 270°
2026-05-04 15:32 47.59890 14.65264 37974 ft 423 kts 270°
2026-05-04 15:34 47.60001 14.43479 37943 ft 423 kts 270°
2026-05-04 15:34 47.60048 14.30422 37941 ft 421 kts 269°
2026-05-04 15:35 47.60078 14.18869 37946 ft 421 kts 269°
2026-05-04 15:36 47.60098 14.05832 37944 ft 422 kts 269°
2026-05-04 15:36 47.60024 13.97133 37949 ft 422 kts 267°
2026-05-04 15:37 47.59798 13.88423 37951 ft 422 kts 267°
2026-05-04 15:37 47.59560 13.79721 37934 ft 423 kts 267°
2026-05-04 15:38 47.59334 13.71064 37946 ft 423 kts 267°
2026-05-04 15:38 47.59110 13.62344 37934 ft 424 kts 267°
2026-05-04 15:39 47.58881 13.53614 37940 ft 424 kts 267°
2026-05-04 15:40 47.58526 13.40531 37935 ft 423 kts 267°
2026-05-04 15:40 47.58282 13.31868 37923 ft 423 kts 266°
2026-05-04 15:41 47.58029 13.23112 37924 ft 422 kts 266°
2026-05-04 15:41 47.57773 13.14491 37922 ft 422 kts 266°
2026-05-04 15:42 47.57510 13.05829 37921 ft 422 kts 266°
2026-05-04 15:42 47.57239 12.97129 37930 ft 423 kts 266°
2026-05-04 15:43 47.56960 12.88408 37914 ft 424 kts 266°
2026-05-04 15:43 47.56677 12.79685 37918 ft 424 kts 266°
2026-05-04 15:44 47.56383 12.70958 37921 ft 425 kts 266°
2026-05-04 15:44 47.56084 12.62217 37930 ft 425 kts 266°
2026-05-04 15:45 47.55779 12.53474 37910 ft 425 kts 266°
2026-05-04 15:45 47.55467 12.44752 37920 ft 424 kts 266°
2026-05-04 15:46 47.55150 12.36084 37925 ft 424 kts 266°
2026-05-04 15:46 47.54825 12.27380 37937 ft 423 kts 266°
2026-05-04 15:47 47.54495 12.18669 37927 ft 423 kts 266°
2026-05-04 15:47 47.54159 12.09967 37928 ft 423 kts 266°
2026-05-04 15:48 47.53916 12.01284 37922 ft 422 kts 271°
2026-05-04 15:48 47.55437 11.88708 36755 ft 411 kts 280°
2026-05-04 15:49 47.56039 11.84614 36077 ft 412 kts 280°
2026-05-04 15:49 47.56637 11.80481 35516 ft 408 kts 280°
2026-05-04 15:49 47.57215 11.76412 34869 ft 401 kts 279°
2026-05-04 15:49 47.57786 11.72327 34087 ft 399 kts 278°
2026-05-04 15:50 47.58333 11.68363 33239 ft 398 kts 278°
2026-05-04 15:50 47.58883 11.64363 32469 ft 393 kts 278°
2026-05-04 15:50 47.59424 11.60417 31768 ft 388 kts 279°
2026-05-04 15:50 47.59956 11.56523 31097 ft 384 kts 279°
2026-05-04 15:51 47.60482 11.52666 30409 ft 380 kts 279°
2026-05-04 15:51 47.61002 11.48847 29681 ft 376 kts 279°
2026-05-04 15:51 47.61517 11.45062 28917 ft 372 kts 279°
2026-05-04 15:51 47.62022 11.41330 28171 ft 367 kts 279°
2026-05-04 15:52 47.62511 11.37636 27437 ft 363 kts 278°
2026-05-04 15:52 47.62967 11.33972 26720 ft 358 kts 278°
2026-05-04 15:52 47.63398 11.30401 26024 ft 354 kts 277°
2026-05-04 15:52 47.63825 11.26826 25302 ft 351 kts 277°
2026-05-04 15:53 47.64251 11.23274 24613 ft 349 kts 278°
2026-05-04 15:53 47.64680 11.19709 24041 ft 351 kts 278°
2026-05-04 15:53 47.65110 11.16127 23513 ft 355 kts 278°
2026-05-04 15:53 47.65547 11.12482 22856 ft 362 kts 278°
2026-05-04 15:54 47.65995 11.08748 22249 ft 373 kts 278°
2026-05-04 15:54 47.66454 11.04902 21616 ft 382 kts 278°
2026-05-04 15:54 47.66920 11.01006 20991 ft 382 kts 278°
2026-05-04 15:54 47.67382 10.97143 20362 ft 379 kts 277°
2026-05-04 15:55 47.67838 10.93314 19768 ft 375 kts 278°
2026-05-04 15:55 47.68283 10.89566 19167 ft 372 kts 278°
2026-05-04 15:55 47.68734 10.85755 18564 ft 369 kts 278°
2026-05-04 15:55 47.69169 10.82064 17902 ft 367 kts 277°
2026-05-04 15:56 47.69610 10.78302 17252 ft 364 kts 277°
2026-05-04 15:56 47.70037 10.74659 16639 ft 361 kts 277°
2026-05-04 15:56 47.70464 10.71007 16033 ft 357 kts 277°
2026-05-04 15:56 47.70886 10.67383 15435 ft 354 kts 277°
2026-05-04 15:57 47.71303 10.63787 14854 ft 351 kts 276°
2026-05-04 15:57 47.71716 10.60217 14277 ft 349 kts 276°
2026-05-04 15:57 47.72125 10.56677 13692 ft 346 kts 276°
2026-05-04 15:57 47.72528 10.53160 13059 ft 344 kts 277°
2026-05-04 15:58 47.72930 10.49662 12446 ft 342 kts 277°
2026-05-04 15:58 47.73322 10.46240 11869 ft 339 kts 277°
2026-05-04 15:58 47.73715 10.42804 11290 ft 335 kts 277°
2026-05-04 15:58 47.74102 10.39404 10730 ft 332 kts 277°
2026-05-04 15:59 47.74483 10.36053 10388 ft 322 kts 277°
2026-05-04 15:59 47.74796 10.32839 10258 ft 306 kts 274°
2026-05-04 15:59 47.75008 10.29769 10124 ft 292 kts 272°
2026-05-04 15:59 47.75187 10.26833 10004 ft 279 kts 272°
2026-05-04 16:00 47.75358 10.24015 9746 ft 272 kts 272°
2026-05-04 16:00 47.75527 10.21236 9403 ft 269 kts 272°
2026-05-04 16:00 47.75697 10.18477 9034 ft 267 kts 272°
2026-05-04 16:00 47.75868 10.15737 8669 ft 265 kts 272°
2026-05-04 16:01 47.76040 10.13019 8311 ft 264 kts 272°
2026-05-04 16:01 47.76211 10.10311 7963 ft 263 kts 272°
2026-05-04 16:01 47.76381 10.07606 7593 ft 263 kts 272°
2026-05-04 16:01 47.76552 10.04905 7250 ft 262 kts 272°
2026-05-04 16:02 47.76719 10.02274 7172 ft 249 kts 272°
2026-05-04 16:02 47.76879 9.99769 7092 ft 238 kts 272°
2026-05-04 16:02 47.77179 9.94984 6727 ft 228 kts 272°
2026-05-04 16:03 47.77325 9.92636 6471 ft 226 kts 272°
2026-05-04 16:03 47.77470 9.90316 6233 ft 225 kts 272°
2026-05-04 16:03 47.77613 9.88011 5987 ft 222 kts 273°
2026-05-04 16:03 47.77752 9.85761 5760 ft 215 kts 273°
2026-05-04 16:04 47.77887 9.83574 5501 ft 209 kts 273°
2026-05-04 16:04 47.77971 9.79498 5181 ft 186 kts 249°
2026-05-04 16:04 47.77469 9.77809 5086 ft 173 kts 241°
2026-05-04 16:05 47.76899 9.76270 4960 ft 167 kts 239°
2026-05-04 16:05 47.76319 9.74780 4788 ft 166 kts 239°
2026-05-04 16:05 47.75157 9.71804 4343 ft 166 kts 239°
2026-05-04 16:06 47.74581 9.70324 4135 ft 165 kts 239°
2026-05-04 16:06 47.73076 9.66460 3546 ft 153 kts 240°
2026-05-04 16:07 47.72423 9.64781 3293 ft 136 kts 241°
2026-05-04 16:07 47.70947 9.60982 2760 ft 147 kts 240°
2026-05-04 16:08 47.70449 9.59701 2544 ft 140 kts 240°
2026-05-04 16:08 47.69012 9.56011 1997 ft 135 kts 240°
2026-05-04 16:09 47.68080 9.53591 1642 ft 135 kts 239°
2026-05-04 16:09 47.67181 9.51276 1374 ft 109 kts 239°
2026-05-04 16:10 47.66834 9.50392 1375 ft 24 kts 239°
2026-05-04 16:11 47.66584 9.49833 1376 ft 19 kts 171°
2026-05-04 16:11 47.66502 9.49980 1375 ft 19 kts 121°
2026-05-04 16:12 47.66599 9.50470 1373 ft 17 kts 61°
2026-05-04 16:12 47.66816 9.50811 1375 ft 15 kts 53°
2026-05-04 16:13 47.66918 9.51072 1375 ft 15 kts 60°
2026-05-04 16:13 47.67043 9.51393 1374 ft 21 kts 60°
2026-05-04 16:14 47.67199 9.51797 1374 ft 25 kts 60°
2026-05-04 16:14 47.67351 9.52198 1373 ft 8 kts 89°
2026-05-04 16:15 47.67305 9.52226 1374 ft 0 kts 304°